Weather History for Freeport, IL

Change the Weather History Date:

Tuesday, March 18, 2014

  Actual Average Record
Temperature  
Mean Temperature 38 °F -  
Max Temperature 47 °F 41 °F 79 °F (2012)
Min Temperature 30 °F 25 °F 10 °F (1993)
Degree Days  
Heating Degree Days 26    
Moisture  
Dew Point 34 °F    
Average Humidity 83    
Maximum Humidity 92    
Minimum Humidity 68    
Precipitation  
Precipitation 0.00 in - - ()
Sea Level Pressure  
Sea Level Pressure 29.75 in    
Wind  
Wind Speed 10 mph (SE)    
Max Wind Speed 23 mph    
Max Gust Speed 28 mph    
Visibility 9 miles    
Events      
Averages and records for this station are not official NWS values.
T = Trace of Precipitation, MM = Missing Value Source: NWS Daily Summary

Daily Weather History Graph

Daily Weather History Graph

Search for Another Location

Airport:

Trip Planner

Search our weather history database for the weather conditions in past years. The results will help you decide how hot, cold, wet, or windy it might be!

Date:

Astronomy

Mar. 18, 2014 Rise Set
Actual Time 7:05 AM CDT 7:08 PM CDT
Civil Twilight 6:37 AM CDT 7:36 PM CDT
Nautical Twilight 6:04 AM CDT 8:09 PM CDT
Astronomical Twilight 5:31 AM CDT 8:42 PM CDT
Moon 9:28 PM CDT (3/18) 7:51 AM CDT (3/18)
Length of Visible Light 12h 59m
Length of Day
12h 03m
Waning Gibbous, 96% of the Moon is Illuminated
Mar 18
Waning Gibbous
Mar 23
Last Quarter
Mar 30
New
Apr 7
First Quarter
Apr 15
Full

Hourly Weather History & Observations

Time (CDT) Temp. Windchill Dew Point Humidity Pressure Visibility Wind Dir Wind Speed Gust Speed Precip Events Conditions
12:15 AM 31.5 °F 25.8 °F 27.5 °F 85% 29.79 in 10.0 mi SE 5.8 mph - N/A   Clear
12:35 AM 32.9 °F 26.7 °F 29.1 °F 86% 29.78 in 10.0 mi SE 6.9 mph - N/A   Clear
12:55 AM 32.5 °F 25.5 °F 28.9 °F 87% 29.78 in 10.0 mi SE 8.1 mph - N/A   Clear
1:15 AM 33.6 °F 25.6 °F 29.8 °F 86% 29.78 in 10.0 mi SE 10.4 mph - N/A   Clear
1:35 AM 33.8 °F 24.8 °F 29.7 °F 85% 29.78 in 10.0 mi SSE 12.7 mph - N/A   Clear
1:55 AM 31.8 °F 23.3 °F 27.9 °F 85% 29.79 in 10.0 mi SSE 10.4 mph - N/A   Clear
2:15 AM 31.6 °F 23.7 °F 27.5 °F 85% 29.79 in 10.0 mi SE 9.2 mph - N/A   Clear
2:35 AM 31.6 °F 23.1 °F 27.5 °F 85% 29.79 in 10.0 mi SSE 10.4 mph - N/A   Clear
2:55 AM 32.0 °F 24.2 °F 28.2 °F 86% 29.79 in 10.0 mi SE 9.2 mph - N/A   Clear
3:15 AM 31.6 °F 23.7 °F 27.5 °F 85% 29.78 in 10.0 mi SSE 9.2 mph - N/A   Clear
3:35 AM 31.5 °F 22.9 °F 27.3 °F 85% 29.78 in 10.0 mi SSE 10.4 mph - N/A   Clear
3:55 AM 31.5 °F 24.2 °F 27.3 °F 85% 29.77 in 10.0 mi SSE 8.1 mph - N/A   Clear
4:15 AM 31.5 °F 25.8 °F 27.5 °F 85% 29.78 in 10.0 mi SSE 5.8 mph - N/A   Clear
4:35 AM 31.5 °F 24.9 °F 27.7 °F 86% 29.77 in 10.0 mi SE 6.9 mph - N/A   Clear
4:55 AM 31.3 °F 23.9 °F 28.0 °F 88% 29.77 in 10.0 mi SE 8.1 mph - N/A   Clear
5:15 AM 30.2 °F 24.3 °F 27.1 °F 88% 29.77 in 10.0 mi SE 5.8 mph - N/A   Clear
5:35 AM 30.2 °F 23.4 °F 27.3 °F 89% 29.77 in 10.0 mi SE 6.9 mph - N/A   Clear
5:55 AM 30.4 °F 23.6 °F 27.5 °F 89% 29.78 in 7.0 mi SE 6.9 mph - N/A   Clear
6:15 AM 30.4 °F 25.6 °F 27.7 °F 90% 29.78 in 7.0 mi SE 4.6 mph - N/A   Clear
6:35 AM 31.5 °F 26.8 °F 28.8 °F 90% 29.79 in 7.0 mi SE 4.6 mph - N/A   Clear
6:55 AM 30.9 °F 24.3 °F 28.4 °F 90% 29.79 in 7.0 mi SE 6.9 mph - N/A   Clear
7:15 AM 31.5 °F 24.2 °F 28.9 °F 90% 29.79 in 7.0 mi SE 8.1 mph - N/A   Clear
7:35 AM 31.5 °F 22.9 °F 28.9 °F 90% 29.79 in 5.0 mi SE 10.4 mph - N/A   Clear
7:55 AM 33.4 °F 25.4 °F 31.3 °F 92% 29.79 in 5.0 mi SE 10.4 mph - N/A   Clear
8:15 AM 33.8 °F 26.4 °F 31.5 °F 91% 29.79 in 5.0 mi ESE 9.2 mph - N/A   Clear
8:35 AM 33.8 °F 26.4 °F 31.1 °F 90% 29.80 in 5.0 mi SE 9.2 mph - N/A   Clear
8:55 AM 33.8 °F 27.0 °F 31.1 °F 90% 29.80 in 7.0 mi SE 8.1 mph - N/A   Clear
9:15 AM 35.2 °F 27.6 °F 32.2 °F 89% 29.81 in 7.0 mi SSE 10.4 mph - N/A   Clear
9:35 AM 36.3 °F 29.5 °F 32.7 °F 87% 29.82 in 7.0 mi SSE 9.2 mph - N/A   Clear
9:55 AM 38.7 °F 30.9 °F 34.7 °F 86% 29.82 in 7.0 mi SSE 12.7 mph - N/A   Clear
10:15 AM 39.0 °F 30.6 °F 34.0 °F 82% 29.82 in 10.0 mi SSE 15.0 mph - N/A   Clear
10:35 AM 39.0 °F 30.6 °F 33.8 °F 82% 29.82 in 7.0 mi SE 15.0 mph - N/A   Clear
10:55 AM 41.2 °F 35.5 °F 35.2 °F 79% 29.82 in 10.0 mi SSE 9.2 mph - N/A   Clear
11:15 AM 40.6 °F 32.7 °F 34.3 °F 78% 29.81 in 10.0 mi SE 15.0 mph - N/A   Clear
11:35 AM 43.2 °F 36.2 °F 36.0 °F 76% 29.80 in 10.0 mi SE 13.8 mph - N/A   Clear
11:55 AM 43.3 °F 36.1 °F 36.1 °F 76% 29.80 in 10.0 mi ESE 15.0 mph - N/A   Clear
12:15 PM 41.4 °F 33.6 °F 34.0 °F 75% 29.80 in 10.0 mi SE 15.0 mph - N/A   Clear
12:35 PM 42.3 °F 34.4 °F 35.8 °F 78% 29.79 in 10.0 mi ESE 16.1 mph - N/A   Clear
12:55 PM 43.7 °F 37.3 °F 35.4 °F 73% 29.82 in 10.0 mi SE 12.7 mph - N/A   Clear
1:15 PM 43.7 °F 38.1 °F 36.1 °F 75% 29.81 in 10.0 mi SSE 10.4 mph - N/A   Clear
1:35 PM 45.7 °F 38.8 °F 36.3 °F 70% 29.81 in 10.0 mi SSE 16.1 mph - N/A   Clear
1:55 PM 46.4 °F 40.4 °F 36.7 °F 69% 29.79 in 10.0 mi SSE 13.8 mph - N/A   Clear
2:15 PM 47.3 °F - 37.2 °F 68% 29.78 in 10.0 mi SSE 12.7 mph - N/A   Clear
2:35 PM 45.3 °F 38.4 °F 36.3 °F 71% 29.77 in 10.0 mi SE 16.1 mph 20.7 mph N/A   Clear
2:55 PM 44.1 °F 37.7 °F 37.2 °F 77% 29.76 in 10.0 mi ESE 12.7 mph - N/A   Clear
3:15 PM 45.0 °F 38.2 °F 38.1 °F 77% 29.74 in 10.0 mi ESE 15.0 mph - N/A   Clear
3:35 PM 46.4 °F 39.2 °F 38.7 °F 74% 29.73 in 10.0 mi ESE 18.4 mph - N/A   Clear
3:55 PM 46.8 °F - 39.0 °F 74% 29.72 in 10.0 mi SE 21.9 mph - N/A   Clear
4:15 PM 47.3 °F - 39.7 °F 75% 29.71 in 10.0 mi ESE 18.4 mph 23.0 mph N/A   Clear
4:35 PM 46.4 °F 38.3 °F 39.4 °F 77% 29.67 in 10.0 mi ESE 23.0 mph 26.5 mph N/A   Clear
4:55 PM 46.9 °F - 39.9 °F 77% 29.66 in 10.0 mi ESE 19.6 mph 27.6 mph N/A   Scattered Clouds
5:15 PM 46.6 °F - 39.9 °F 78% 29.67 in 10.0 mi ESE 16.1 mph 21.9 mph N/A   Scattered Clouds
5:35 PM 45.1 °F 36.9 °F 39.2 °F 80% 29.65 in 10.0 mi ESE 21.9 mph 27.6 mph N/A   Scattered Clouds
5:55 PM 45.3 °F 38.7 °F 39.2 °F 79% 29.66 in 10.0 mi ESE 15.0 mph 20.7 mph N/A   Clear
6:15 PM 45.5 °F 39.6 °F 39.2 °F 79% 29.67 in 10.0 mi ESE 12.7 mph - N/A   Clear
6:35 PM 46.0 °F 41.0 °F 39.4 °F 78% 29.68 in 10.0 mi ESE 10.4 mph - N/A   Clear
6:55 PM 43.7 °F 38.6 °F 38.5 °F 82% 29.68 in 10.0 mi ESE 9.2 mph - N/A   Clear
7:15 PM 42.1 °F 40.2 °F 37.4 °F 83% 29.69 in 10.0 mi SE 3.5 mph - N/A   Clear
7:35 PM 41.2 °F - 36.7 °F 84% 29.71 in 10.0 mi Calm Calm - N/A   Clear
7:55 PM 38.7 °F - 34.9 °F 86% 29.71 in 10.0 mi Calm Calm - N/A   Mostly Cloudy
8:15 PM 39.6 °F 36.3 °F 36.0 °F 87% 29.71 in 10.0 mi ESE 4.6 mph - N/A   Overcast
8:35 PM 39.4 °F 33.8 °F 35.8 °F 87% 29.72 in 10.0 mi SE 8.1 mph - N/A   Overcast
8:55 PM 39.9 °F 36.7 °F 36.5 °F 88% 29.71 in 10.0 mi ESE 4.6 mph - N/A   Overcast
9:15 PM 41.0 °F 39.0 °F 37.6 °F 88% 29.71 in 10.0 mi East 3.5 mph - N/A   Overcast
9:35 PM 41.2 °F 36.0 °F 37.4 °F 86% 29.70 in 10.0 mi ESE 8.1 mph - N/A   Overcast
9:55 PM 41.2 °F 35.5 °F 37.4 °F 86% 29.70 in 10.0 mi East 9.2 mph - N/A   Overcast
10:15 PM 41.2 °F 37.3 °F 37.4 °F 86% 29.69 in 10.0 mi East 5.8 mph - N/A   Overcast
10:35 PM 41.2 °F 36.0 °F 37.6 °F 87% 29.69 in 7.0 mi East 8.1 mph - N/A   Mostly Cloudy
10:55 PM 41.2 °F 38.2 °F 37.6 °F 87% 29.68 in 7.0 mi ESE 4.6 mph - N/A   Mostly Cloudy
11:15 PM 40.5 °F 36.5 °F 37.0 °F 88% 29.67 in 7.0 mi East 5.8 mph - N/A   Mostly Cloudy
11:35 PM 40.1 °F 36.1 °F 36.7 °F 88% 29.67 in 7.0 mi East 5.8 mph - N/A   Mostly Cloudy
11:55 PM 38.7 °F 36.3 °F 36.1 °F 91% 29.67 in 5.0 mi ENE 3.5 mph - N/A   Mostly Cloudy